{"data":{"norad_id":32253,"epoch":"2026-09-19T18:14:38.676768Z","epoch_age_seconds":78178,"freshness":"FRESH","line1":"1 32253U 07044B   26262.76016987  .00000071  00000+0  00000+0 0  9998","line2":"2 32253   3.8044  77.4470 0007560 129.7956 134.7965  0.99046611 69389","mean_motion":0.99046611,"eccentricity":0.000756,"inclination_deg":3.8044,"raan_deg":77.447,"arg_perigee_deg":129.7956,"mean_anomaly_deg":134.7965,"bstar":0,"rev_number":6938,"period_min":1453.8609503762,"perigee_km":36101.452409632,"apogee_km":36165.730142785,"semimajor_km":42511.728276209,"source":"CELESTRAK","updated_at":"2026-09-20T09:00:35.516568Z"}}